Flag for United Kingdom Weather past 2 weeks in Telford, England, United Kingdom

Now
46 °F

Passing clouds.


Feels Like: 41 °F
Forecast: 42 / 53 °F
Wind: 12 mph from Southwest

Location: Shawbury

Current Time: Dec 21, 2014 at 12:53:19 AM

Latest Report: Dec 20, 2014 at 11:50 PM


Visibility: N/A

Pressure: 30.36 "Hg

Humidity: 82%

Dew point: 41 °F

Location of TelfordLocation

Historic Weather in Telford — Graph

°F

Telford temperature yesterday

Maximum temperature yesterday: 48 °F (at 1:50 PM)
Minimum temperature yesterday: 43 °F (at 12:50 AM)
Average temperature yesterday: 45 °F

Past Weeks' High & Low Weather Summary

 TemperatureHumidityPressure
High55 °F (Dec 9, 9:50 PM)100% (Dec 8, 5:50 AM)30.39 "Hg (Dec 8, 5:50 AM)
Low28 °F (Dec 9, 3:50 AM)53% (Dec 7, 12:50 PM)29.15 "Hg (Dec 12, 2:50 AM)
Average43 °F82%29.87 "Hg
* Reported Dec 5 10:50 PM — Dec 20 10:50 PM, Telford, Weather by CustomWeather, © 2014

Note: Actual official high and low records may vary slightly from our data, if they occured in-between our weather recording intervals... More about our weather records

Advertising

Telford weather history for previous 24 hours

 ConditionsComfort  
Time TempWeatherWind HumidityBarometerVisibility
10:50 PM
Dec 20
45 °FOvercast.9 mph87%30.39 "HgN/A
9:50 PM45 °FPassing clouds.8 mph87%30.39 "HgN/A
8:50 PM45 °FOvercast.7 mph81%30.39 "HgN/A
7:50 PM45 °FPassing clouds.6 mph81%30.39 "HgN/A
6:50 PM43 °FPassing clouds.7 mph87%30.36 "HgN/A
5:50 PM43 °FPassing clouds.3 mph81%30.36 "HgN/A
4:50 PM45 °FQuite cool.10 mph76%30.33 "HgN/A
3:50 PM45 °FPassing clouds.10 mph76%30.33 "HgN/A
2:50 PM46 °FPassing clouds.9 mph71%30.30 "HgN/A
1:50 PM48 °FPartly sunny.12 mph66%30.30 "HgN/A
12:50 PM46 °FPartly sunny.13 mph76%30.27 "HgN/A
11:50 AM46 °FPartly sunny.12 mph76%30.27 "HgN/A
10:50 AM46 °FPartly sunny.14 mph76%30.24 "HgN/A
9:50 AM46 °FBroken clouds.12 mph76%30.24 "HgN/A
8:50 AM45 °FBroken clouds.9 mph76%30.21 "HgN/A
7:50 AM45 °FPassing clouds.12 mph81%30.18 "HgN/A
6:50 AM45 °FPassing clouds.14 mph76%30.15 "HgN/A
5:50 AM45 °FPassing clouds.20 mph76%30.15 "HgN/A
4:50 AM45 °FPassing clouds.17 mph76%30.15 "HgN/A
3:50 AM46 °FPassing clouds.15 mph71%30.12 "HgN/A
2:50 AM46 °FPassing clouds.18 mph71%30.12 "HgN/A
1:50 AM45 °FPassing clouds.10 mph76%30.12 "HgN/A
12:50 AM43 °FPassing clouds.12 mph81%30.12 "HgN/A
Weather by CustomWeather, © 2014

See weather overviewHow to use our weather pages